Year,Month,Day,Hour,Minute,Value (Times are PST for temperature in C)
2011,05,04,00,00,4.40
2011,05,04,00,01,4.40
2011,05,04,00,02,4.40
2011,05,04,00,03,4.40
2011,05,04,00,04,4.40
2011,05,04,00,05,4.30
2011,05,04,00,06,4.30
2011,05,04,00,07,4.30
2011,05,04,00,08,4.30
2011,05,04,00,09,4.30
2011,05,04,00,10,4.30
2011,05,04,00,11,4.20
2011,05,04,00,12,4.20
2011,05,04,00,13,4.20
2011,05,04,00,14,4.20
2011,05,04,00,15,4.20
2011,05,04,00,16,4.20
2011,05,04,00,17,4.20
2011,05,04,00,18,4.20
2011,05,04,00,19,4.20
2011,05,04,00,20,4.20
2011,05,04,00,21,4.20
2011,05,04,00,22,4.20
2011,05,04,00,23,4.20
2011,05,04,00,24,4.20
2011,05,04,00,25,4.20
2011,05,04,00,26,4.20
2011,05,04,00,27,4.20
2011,05,04,00,28,4.10
2011,05,04,00,29,4.10
2011,05,04,00,30,4.10
2011,05,04,00,31,4.10
2011,05,04,00,32,4.00
2011,05,04,00,33,4.00
2011,05,04,00,34,4.00
2011,05,04,00,35,4.00
2011,05,04,00,36,4.00
2011,05,04,00,37,4.00
2011,05,04,00,38,3.90
2011,05,04,00,39,3.90
2011,05,04,00,40,3.90
2011,05,04,00,41,3.80
2011,05,04,00,42,3.80
2011,05,04,00,43,3.80
2011,05,04,00,44,3.80
2011,05,04,00,45,3.80
2011,05,04,00,46,3.80
2011,05,04,00,47,3.80
2011,05,04,00,48,3.80
2011,05,04,00,49,3.80
2011,05,04,00,50,3.80
2011,05,04,00,51,3.70
2011,05,04,00,52,3.70
2011,05,04,00,53,3.70
2011,05,04,00,54,3.70
2011,05,04,00,55,3.70
2011,05,04,00,56,3.60
2011,05,04,00,57,3.60
2011,05,04,00,58,3.60
2011,05,04,00,59,3.60
2011,05,04,01,00,3.60
2011,05,04,01,01,3.50
2011,05,04,01,02,3.50
2011,05,04,01,03,3.50
2011,05,04,01,04,3.40
2011,05,04,01,05,3.40
2011,05,04,01,06,3.40
2011,05,04,01,07,3.40
2011,05,04,01,08,3.30
2011,05,04,01,09,3.30
2011,05,04,01,10,3.30
2011,05,04,01,11,3.30
2011,05,04,01,12,3.30
2011,05,04,01,13,3.30
2011,05,04,01,14,3.30
2011,05,04,01,15,3.30
2011,05,04,01,16,3.30
2011,05,04,01,17,3.30
2011,05,04,01,18,3.30
2011,05,04,01,19,3.30
2011,05,04,01,20,3.30
2011,05,04,01,21,3.30
2011,05,04,01,22,3.30
2011,05,04,01,23,3.30
2011,05,04,01,24,3.30
2011,05,04,01,25,3.30
2011,05,04,01,26,3.30
2011,05,04,01,27,3.30
2011,05,04,01,28,3.30
2011,05,04,01,29,3.30
2011,05,04,01,30,3.30
2011,05,04,01,31,3.30
2011,05,04,01,32,3.30
2011,05,04,01,33,3.30
2011,05,04,01,34,3.30
2011,05,04,01,35,3.30
2011,05,04,01,36,3.30
2011,05,04,01,37,3.30
2011,05,04,01,38,3.30
2011,05,04,01,39,3.30
2011,05,04,01,40,3.30
2011,05,04,01,41,3.30
2011,05,04,01,42,3.20
2011,05,04,01,43,3.20
2011,05,04,01,44,3.20
2011,05,04,01,45,3.20
2011,05,04,01,46,3.20
2011,05,04,01,47,3.20
2011,05,04,01,48,3.20
2011,05,04,01,49,3.20
2011,05,04,01,50,3.20
2011,05,04,01,51,3.20
2011,05,04,01,52,3.20
2011,05,04,01,53,3.20
2011,05,04,01,54,3.20
2011,05,04,01,55,3.20
2011,05,04,01,56,3.20
2011,05,04,01,57,3.20
2011,05,04,01,58,3.10
2011,05,04,01,59,3.10
2011,05,04,02,00,3.10
2011,05,04,02,01,3.10
2011,05,04,02,02,3.10
2011,05,04,02,03,3.10
2011,05,04,02,04,3.10
2011,05,04,02,05,3.10
2011,05,04,02,06,3.10
2011,05,04,02,07,3.10
2011,05,04,02,08,3.10
2011,05,04,02,09,3.10
2011,05,04,02,10,3.10
2011,05,04,02,11,3.10
2011,05,04,02,12,3.10
2011,05,04,02,13,3.10
2011,05,04,02,14,3.10
2011,05,04,02,15,3.00
2011,05,04,02,16,2.90
2011,05,04,02,17,2.90
2011,05,04,02,18,2.90
2011,05,04,02,19,2.90
2011,05,04,02,20,2.90
2011,05,04,02,21,2.90
2011,05,04,02,22,2.90
2011,05,04,02,23,2.90
2011,05,04,02,24,2.90
2011,05,04,02,25,2.90
2011,05,04,02,26,2.90
2011,05,04,02,27,2.90
2011,05,04,02,28,2.90
2011,05,04,02,29,2.90
2011,05,04,02,30,2.90
2011,05,04,02,31,2.80
2011,05,04,02,32,2.80
2011,05,04,02,33,2.80
2011,05,04,02,34,2.80
2011,05,04,02,35,2.80
2011,05,04,02,36,2.80
2011,05,04,02,37,2.80
2011,05,04,02,38,2.70
2011,05,04,02,39,2.70
2011,05,04,02,40,2.70
2011,05,04,02,41,2.70
2011,05,04,02,42,2.70
2011,05,04,02,43,2.70
2011,05,04,02,44,2.70
2011,05,04,02,45,2.70
2011,05,04,02,46,2.70
2011,05,04,02,47,2.70
2011,05,04,02,48,2.60
2011,05,04,02,49,2.60
2011,05,04,02,50,2.60
2011,05,04,02,51,2.60
2011,05,04,02,52,2.60
2011,05,04,02,53,2.60
2011,05,04,02,54,2.60
2011,05,04,02,55,2.60
2011,05,04,02,56,2.60
2011,05,04,02,57,2.60
2011,05,04,02,58,2.60
2011,05,04,02,59,2.60
2011,05,04,03,00,2.60
2011,05,04,03,01,2.50
2011,05,04,03,02,2.50
2011,05,04,03,03,2.50
2011,05,04,03,04,2.50
2011,05,04,03,05,2.50
2011,05,04,03,06,2.50
2011,05,04,03,07,2.50
2011,05,04,03,08,2.50
2011,05,04,03,09,2.50
2011,05,04,03,10,2.50
2011,05,04,03,11,2.50
2011,05,04,03,12,2.50
2011,05,04,03,13,2.50
2011,05,04,03,14,2.50
2011,05,04,03,15,2.50
2011,05,04,03,16,2.50
2011,05,04,03,17,2.50
2011,05,04,03,18,2.50
2011,05,04,03,19,2.50
2011,05,04,03,20,2.50
2011,05,04,03,21,2.40
2011,05,04,03,22,2.40
2011,05,04,03,23,2.40
2011,05,04,03,24,2.40
2011,05,04,03,25,2.40
2011,05,04,03,26,2.40
2011,05,04,03,27,2.40
2011,05,04,03,28,2.40
2011,05,04,03,29,2.40
2011,05,04,03,30,2.40
2011,05,04,03,31,2.40
2011,05,04,03,32,2.40
2011,05,04,03,33,2.40
2011,05,04,03,34,2.40
2011,05,04,03,35,2.40
2011,05,04,03,36,2.40
2011,05,04,03,37,2.40
2011,05,04,03,38,2.40
2011,05,04,03,39,2.40
2011,05,04,03,40,2.30
2011,05,04,03,41,2.30
2011,05,04,03,42,2.30
2011,05,04,03,43,2.30
2011,05,04,03,44,2.30
2011,05,04,03,45,2.30
2011,05,04,03,46,2.30
2011,05,04,03,47,2.30
2011,05,04,03,48,2.30
2011,05,04,03,49,2.30
2011,05,04,03,50,2.30
2011,05,04,03,51,2.30
2011,05,04,03,52,2.30
2011,05,04,03,53,2.30
2011,05,04,03,54,2.30
2011,05,04,03,55,2.30
2011,05,04,03,56,2.20
2011,05,04,03,57,2.20
2011,05,04,03,58,2.20
2011,05,04,03,59,2.20
2011,05,04,04,00,2.20
2011,05,04,04,01,2.20
2011,05,04,04,02,2.20
2011,05,04,04,03,2.20
2011,05,04,04,04,2.20
2011,05,04,04,05,2.20
2011,05,04,04,06,2.20
2011,05,04,04,07,2.20
2011,05,04,04,08,2.20
2011,05,04,04,09,2.20
2011,05,04,04,10,2.20
2011,05,04,04,11,2.20
2011,05,04,04,12,2.20
2011,05,04,04,13,2.20
2011,05,04,04,14,2.20
2011,05,04,04,15,2.20
2011,05,04,04,16,2.20
2011,05,04,04,17,2.20
2011,05,04,04,18,2.20
2011,05,04,04,19,2.20
2011,05,04,04,20,2.20
2011,05,04,04,21,2.20
2011,05,04,04,22,2.20
2011,05,04,04,23,2.20
2011,05,04,04,24,2.20
2011,05,04,04,25,2.20
2011,05,04,04,26,2.20
2011,05,04,04,27,2.20
2011,05,04,04,28,2.20
2011,05,04,04,29,2.20
2011,05,04,04,30,2.10
2011,05,04,04,31,2.10
2011,05,04,04,32,2.10
2011,05,04,04,33,2.10
2011,05,04,04,34,2.10
2011,05,04,04,35,2.10
2011,05,04,04,36,2.00
2011,05,04,04,37,2.00
2011,05,04,04,38,2.00
2011,05,04,04,39,2.00
2011,05,04,04,40,2.10
2011,05,04,04,41,2.10
2011,05,04,04,42,2.10
2011,05,04,04,43,2.10
2011,05,04,04,44,2.10
2011,05,04,04,45,2.10
2011,05,04,04,46,2.10
2011,05,04,04,47,2.10
2011,05,04,04,48,2.10
2011,05,04,04,49,2.10
2011,05,04,04,50,2.00
2011,05,04,04,51,2.00
2011,05,04,04,52,2.00
2011,05,04,04,53,2.00
2011,05,04,04,54,2.00
2011,05,04,04,55,2.00
2011,05,04,04,56,1.90
2011,05,04,04,57,1.90
2011,05,04,04,58,1.90
2011,05,04,04,59,1.90
2011,05,04,05,00,1.90
2011,05,04,05,01,1.90
2011,05,04,05,02,1.90
2011,05,04,05,03,1.90
2011,05,04,05,04,1.90
2011,05,04,05,05,1.90
2011,05,04,05,06,1.90
2011,05,04,05,07,1.90
2011,05,04,05,08,1.90
2011,05,04,05,09,1.90
2011,05,04,05,10,1.90
2011,05,04,05,11,1.90
2011,05,04,05,12,1.80
2011,05,04,05,13,1.80
2011,05,04,05,14,1.80
2011,05,04,05,15,1.80
2011,05,04,05,16,1.80
2011,05,04,05,17,1.80
2011,05,04,05,18,1.80
2011,05,04,05,19,1.80
2011,05,04,05,20,1.80
2011,05,04,05,21,1.80
2011,05,04,05,22,1.80
2011,05,04,05,23,1.80
2011,05,04,05,24,1.80
2011,05,04,05,25,1.80
2011,05,04,05,26,1.80
2011,05,04,05,27,1.80
2011,05,04,05,28,1.80
2011,05,04,05,29,1.80
2011,05,04,05,30,1.80
2011,05,04,05,31,1.80
2011,05,04,05,32,1.80
2011,05,04,05,33,1.80
2011,05,04,05,34,1.80
2011,05,04,05,35,1.80
2011,05,04,05,36,1.80
2011,05,04,05,37,1.80
2011,05,04,05,38,1.70
2011,05,04,05,39,1.70
2011,05,04,05,40,1.70
2011,05,04,05,41,1.70
2011,05,04,05,42,1.70
2011,05,04,05,43,1.70
2011,05,04,05,44,1.70
2011,05,04,05,45,1.70
2011,05,04,05,46,1.70
2011,05,04,05,47,1.80
2011,05,04,05,48,1.80
2011,05,04,05,49,1.80
2011,05,04,05,50,1.80
2011,05,04,05,51,1.80
2011,05,04,05,52,1.80
2011,05,04,05,53,1.80
2011,05,04,05,54,1.80
2011,05,04,05,55,1.80
2011,05,04,05,56,1.80
2011,05,04,05,57,1.80
2011,05,04,05,58,1.80
2011,05,04,05,59,1.80
2011,05,04,06,00,1.80
2011,05,04,06,01,1.80
2011,05,04,06,02,1.80
2011,05,04,06,03,1.80
2011,05,04,06,04,1.80
2011,05,04,06,05,1.80
2011,05,04,06,06,1.80
2011,05,04,06,07,1.80
2011,05,04,06,08,1.80
2011,05,04,06,09,1.80
2011,05,04,06,10,1.80
2011,05,04,06,11,1.80
2011,05,04,06,12,1.80
2011,05,04,06,13,1.80
2011,05,04,06,14,1.80
2011,05,04,06,15,1.80
2011,05,04,06,16,1.80
2011,05,04,06,17,1.80
2011,05,04,06,18,1.80
2011,05,04,06,19,1.80
2011,05,04,06,20,1.80
2011,05,04,06,21,1.80
2011,05,04,06,22,1.80
2011,05,04,06,23,1.80
2011,05,04,06,24,1.80
2011,05,04,06,25,1.80
2011,05,04,06,26,1.80
2011,05,04,06,27,1.80
2011,05,04,06,28,1.80
2011,05,04,06,29,1.80
2011,05,04,06,30,1.80
2011,05,04,06,31,1.80
2011,05,04,06,32,1.80
2011,05,04,06,33,1.90
2011,05,04,06,34,1.90
2011,05,04,06,35,1.90
2011,05,04,06,36,1.90
2011,05,04,06,37,1.90
2011,05,04,06,38,1.90
2011,05,04,06,39,1.90
2011,05,04,06,40,1.90
2011,05,04,06,41,1.90
2011,05,04,06,42,1.90
2011,05,04,06,43,2.00
2011,05,04,06,44,2.00
2011,05,04,06,45,2.00
2011,05,04,06,46,2.00
2011,05,04,06,47,2.10
2011,05,04,06,48,2.10
2011,05,04,06,49,2.10
2011,05,04,06,50,2.20
2011,05,04,06,51,2.20
2011,05,04,06,52,2.20
2011,05,04,06,53,2.20
2011,05,04,06,54,2.20
2011,05,04,06,55,2.20
2011,05,04,06,56,2.20
2011,05,04,06,57,2.20
2011,05,04,06,58,2.30
2011,05,04,06,59,2.30
2011,05,04,07,00,2.30
2011,05,04,07,01,2.30
2011,05,04,07,02,2.30
2011,05,04,07,03,2.30
2011,05,04,07,04,2.30
2011,05,04,07,05,2.30
2011,05,04,07,06,2.40
2011,05,04,07,07,2.40
2011,05,04,07,08,2.40
2011,05,04,07,09,2.40
2011,05,04,07,10,2.40
2011,05,04,07,11,2.50
2011,05,04,07,12,2.50
2011,05,04,07,13,2.50
2011,05,04,07,14,2.50
2011,05,04,07,15,2.60
2011,05,04,07,16,2.60
2011,05,04,07,17,2.60
2011,05,04,07,18,2.70
2011,05,04,07,19,2.70
2011,05,04,07,20,2.70
2011,05,04,07,21,2.70
2011,05,04,07,22,2.70
2011,05,04,07,23,2.70
2011,05,04,07,24,2.70
2011,05,04,07,25,2.80
2011,05,04,07,26,2.80
2011,05,04,07,27,2.80
2011,05,04,07,28,2.80
2011,05,04,07,29,2.90
2011,05,04,07,30,2.90
2011,05,04,07,31,2.90
2011,05,04,07,32,2.90
2011,05,04,07,33,2.90
2011,05,04,07,34,2.90
2011,05,04,07,35,3.00
2011,05,04,07,36,3.10
2011,05,04,07,37,3.10
2011,05,04,07,38,3.10
2011,05,04,07,39,3.10
2011,05,04,07,40,3.20
2011,05,04,07,41,3.20
2011,05,04,07,42,3.20
2011,05,04,07,43,3.30
2011,05,04,07,44,3.30
2011,05,04,07,45,3.30
2011,05,04,07,46,3.30
2011,05,04,07,47,3.40
2011,05,04,07,48,3.40
2011,05,04,07,49,3.40
2011,05,04,07,50,3.50
2011,05,04,07,51,3.50
2011,05,04,07,52,3.50
2011,05,04,07,53,3.60
2011,05,04,07,54,3.60
2011,05,04,07,55,3.60
2011,05,04,07,56,3.70
2011,05,04,07,57,3.70
2011,05,04,07,58,3.80
2011,05,04,07,59,3.80
2011,05,04,08,00,3.80
2011,05,04,08,01,3.90
2011,05,04,08,02,3.90
2011,05,04,08,03,4.00
2011,05,04,08,04,4.00
2011,05,04,08,05,4.10
2011,05,04,08,06,4.10
2011,05,04,08,07,4.20
2011,05,04,08,08,4.20
2011,05,04,08,09,4.30
2011,05,04,08,10,4.30
2011,05,04,08,11,4.40
2011,05,04,08,12,4.40
2011,05,04,08,13,4.50
2011,05,04,08,14,4.50
2011,05,04,08,15,4.60
2011,05,04,08,16,4.60
2011,05,04,08,17,4.70
2011,05,04,08,18,4.80
2011,05,04,08,19,4.90
2011,05,04,08,20,4.90
2011,05,04,08,21,5.00
2011,05,04,08,22,5.10
2011,05,04,08,23,5.10
2011,05,04,08,24,5.10
2011,05,04,08,25,5.10
2011,05,04,08,26,5.20
2011,05,04,08,27,5.20
2011,05,04,08,28,5.30
2011,05,04,08,29,5.30
2011,05,04,08,30,5.30
2011,05,04,08,31,5.40
2011,05,04,08,32,5.40
2011,05,04,08,33,5.40
2011,05,04,08,34,5.50
2011,05,04,08,35,5.50
2011,05,04,08,36,5.60
2011,05,04,08,37,5.60
2011,05,04,08,38,5.70
2011,05,04,08,39,5.70
2011,05,04,08,40,5.70
2011,05,04,08,41,5.80
2011,05,04,08,42,5.80
2011,05,04,08,43,5.90
2011,05,04,08,44,5.90
2011,05,04,08,45,6.00
2011,05,04,08,46,6.00
2011,05,04,08,47,6.00
2011,05,04,08,48,6.10
2011,05,04,08,49,6.10
2011,05,04,08,50,6.10
2011,05,04,08,51,6.20
2011,05,04,08,52,6.20
2011,05,04,08,53,6.20
2011,05,04,08,54,6.20
2011,05,04,08,55,6.20
2011,05,04,08,56,6.30
2011,05,04,08,57,6.30
2011,05,04,08,58,6.40
2011,05,04,08,59,6.40
2011,05,04,09,00,6.40
2011,05,04,09,01,6.40
2011,05,04,09,02,6.50
2011,05,04,09,03,6.60
2011,05,04,09,04,6.60
2011,05,04,09,05,6.60
2011,05,04,09,06,6.60
2011,05,04,09,07,6.70
2011,05,04,09,08,6.70
2011,05,04,09,09,6.70
2011,05,04,09,10,6.80
2011,05,04,09,11,6.80
2011,05,04,09,12,6.90
2011,05,04,09,13,6.90
2011,05,04,09,14,7.00
2011,05,04,09,15,7.00
2011,05,04,09,16,7.00
2011,05,04,09,17,7.10
2011,05,04,09,18,7.10
2011,05,04,09,19,7.20
2011,05,04,09,20,7.20
2011,05,04,09,21,7.30
2011,05,04,09,22,7.30
2011,05,04,09,23,7.30
2011,05,04,09,24,7.30
2011,05,04,09,25,7.40
2011,05,04,09,26,7.40
2011,05,04,09,27,7.50
2011,05,04,09,28,7.60
2011,05,04,09,29,7.60
2011,05,04,09,30,7.70
2011,05,04,09,31,7.70
2011,05,04,09,32,7.80
2011,05,04,09,33,7.80
2011,05,04,09,34,7.80
2011,05,04,09,35,7.90
2011,05,04,09,36,7.90
2011,05,04,09,37,8.00
2011,05,04,09,38,8.00
2011,05,04,09,39,8.00
2011,05,04,09,40,8.00
2011,05,04,09,41,8.10
2011,05,04,09,42,8.10
2011,05,04,09,43,8.10
2011,05,04,09,44,8.20
2011,05,04,09,45,8.20
2011,05,04,09,46,8.20
2011,05,04,09,47,8.30
2011,05,04,09,48,8.30
2011,05,04,09,49,8.40
2011,05,04,09,50,8.40
2011,05,04,09,51,8.50
2011,05,04,09,52,8.50
2011,05,04,09,53,8.60
2011,05,04,09,54,8.60
2011,05,04,09,55,8.60
2011,05,04,09,56,8.70
2011,05,04,09,57,8.70
2011,05,04,09,58,8.70
2011,05,04,09,59,8.80
2011,05,04,10,00,8.80
2011,05,04,10,01,8.90
2011,05,04,10,02,8.90
2011,05,04,10,03,8.90
2011,05,04,10,04,9.00
2011,05,04,10,05,9.00
2011,05,04,10,06,9.00
2011,05,04,10,07,9.10
2011,05,04,10,08,9.10
2011,05,04,10,09,9.20
2011,05,04,10,10,9.20
2011,05,04,10,11,9.20
2011,05,04,10,12,9.30
2011,05,04,10,13,9.30
2011,05,04,10,14,9.40
2011,05,04,10,15,9.40
2011,05,04,10,16,9.40
2011,05,04,10,17,9.50
2011,05,04,10,18,9.50
2011,05,04,10,19,9.60
2011,05,04,10,20,9.60
2011,05,04,10,21,9.60
2011,05,04,10,22,9.70
2011,05,04,10,23,9.70
2011,05,04,10,24,9.70
2011,05,04,10,25,9.70
2011,05,04,10,26,9.80
2011,05,04,10,27,9.80
2011,05,04,10,28,9.90
2011,05,04,10,29,9.90
2011,05,04,10,30,9.90
2011,05,04,10,31,9.90
2011,05,04,10,32,9.90
2011,05,04,10,33,9.90
2011,05,04,10,34,9.90
2011,05,04,10,35,10.00
2011,05,04,10,36,10.10
2011,05,04,10,37,10.10
2011,05,04,10,38,10.10
2011,05,04,10,39,10.10
2011,05,04,10,40,10.10
2011,05,04,10,41,10.10
2011,05,04,10,42,10.20
2011,05,04,10,43,10.20
2011,05,04,10,44,10.30
2011,05,04,10,45,10.30
2011,05,04,10,46,10.30
2011,05,04,10,47,10.40
2011,05,04,10,48,10.40
2011,05,04,10,49,10.40
2011,05,04,10,50,10.40
2011,05,04,10,51,10.40
2011,05,04,10,52,10.40
2011,05,04,10,53,10.50
2011,05,04,10,54,10.60
2011,05,04,10,55,10.60
2011,05,04,10,56,10.60
2011,05,04,10,57,10.60
2011,05,04,10,58,10.60
2011,05,04,10,59,10.70
2011,05,04,11,00,10.70
2011,05,04,11,01,10.80
2011,05,04,11,02,10.80
2011,05,04,11,03,10.80
2011,05,04,11,04,10.90
2011,05,04,11,05,10.90
2011,05,04,11,06,10.90
2011,05,04,11,07,10.90
2011,05,04,11,08,10.90
2011,05,04,11,09,11.00
2011,05,04,11,10,11.10
2011,05,04,11,11,11.10
2011,05,04,11,12,11.10
2011,05,04,11,13,11.10
2011,05,04,11,14,11.20
2011,05,04,11,15,11.20
2011,05,04,11,16,11.20
2011,05,04,11,17,11.20
2011,05,04,11,18,11.20
2011,05,04,11,19,11.20
2011,05,04,11,20,11.20
2011,05,04,11,21,11.20
2011,05,04,11,22,11.20
2011,05,04,11,23,11.30
2011,05,04,11,24,11.30
2011,05,04,11,25,11.30
2011,05,04,11,26,11.30
2011,05,04,11,27,11.30
2011,05,04,11,28,11.30
2011,05,04,11,29,11.30
2011,05,04,11,30,11.30
2011,05,04,11,31,11.30
2011,05,04,11,32,11.30
2011,05,04,11,33,11.30
2011,05,04,11,34,11.40
2011,05,04,11,35,11.40
2011,05,04,11,36,11.40
2011,05,04,11,37,11.40
2011,05,04,11,38,11.40
2011,05,04,11,39,11.50
2011,05,04,11,40,11.60
2011,05,04,11,41,11.60
2011,05,04,11,42,11.60
2011,05,04,11,43,11.60
2011,05,04,11,44,11.60
2011,05,04,11,45,11.60
2011,05,04,11,46,11.70
2011,05,04,11,47,11.70
2011,05,04,11,48,11.70
2011,05,04,11,49,11.70
2011,05,04,11,50,11.70
2011,05,04,11,51,11.70
2011,05,04,11,52,11.80
2011,05,04,11,53,11.80
2011,05,04,11,54,11.70
2011,05,04,11,55,11.70
2011,05,04,11,56,11.70
2011,05,04,11,57,11.70
2011,05,04,11,58,11.60
2011,05,04,11,59,11.60
2011,05,04,12,00,11.60
2011,05,04,12,01,11.60
2011,05,04,12,02,11.60
2011,05,04,12,03,11.60
2011,05,04,12,04,11.70
2011,05,04,12,05,11.70
2011,05,04,12,06,11.70
2011,05,04,12,07,11.70
2011,05,04,12,08,11.70
2011,05,04,12,09,11.70
2011,05,04,12,10,11.70
2011,05,04,12,11,11.70
2011,05,04,12,12,11.80
2011,05,04,12,13,11.80
2011,05,04,12,14,11.80
2011,05,04,12,15,11.80
2011,05,04,12,16,11.80
2011,05,04,12,17,11.80
2011,05,04,12,18,11.90
2011,05,04,12,19,11.90
2011,05,04,12,20,11.90
2011,05,04,12,21,11.90
2011,05,04,12,22,12.00
2011,05,04,12,23,12.00
2011,05,04,12,24,12.00
2011,05,04,12,25,12.00
2011,05,04,12,26,12.00
2011,05,04,12,27,12.10
2011,05,04,12,28,12.10
2011,05,04,12,29,12.20
2011,05,04,12,30,12.30
2011,05,04,12,31,12.30
2011,05,04,12,32,12.30
2011,05,04,12,33,12.40
2011,05,04,12,34,12.40
2011,05,04,12,35,12.50
2011,05,04,12,36,12.50
2011,05,04,12,37,12.50
2011,05,04,12,38,12.50
2011,05,04,12,39,12.50
2011,05,04,12,40,12.60
2011,05,04,12,41,12.60
2011,05,04,12,42,12.70
2011,05,04,12,43,12.70
2011,05,04,12,44,12.70
2011,05,04,12,45,12.70
2011,05,04,12,46,12.70
2011,05,04,12,47,12.70
2011,05,04,12,48,12.70
2011,05,04,12,49,12.70
2011,05,04,12,50,12.70
2011,05,04,12,51,12.70
2011,05,04,12,52,12.70
2011,05,04,12,53,12.70
2011,05,04,12,54,12.70
2011,05,04,12,55,12.70
2011,05,04,12,56,12.70
2011,05,04,12,57,12.80
2011,05,04,12,58,12.70
2011,05,04,12,59,12.80
2011,05,04,13,00,12.80
2011,05,04,13,01,12.80
2011,05,04,13,02,12.80
2011,05,04,13,03,12.80
2011,05,04,13,04,12.80
2011,05,04,13,05,12.80
2011,05,04,13,06,12.80
2011,05,04,13,07,12.80
2011,05,04,13,08,12.80
2011,05,04,13,09,12.80
2011,05,04,13,10,12.80
2011,05,04,13,11,12.80
2011,05,04,13,12,12.80
2011,05,04,13,13,12.80
2011,05,04,13,14,12.90
2011,05,04,13,15,12.90
2011,05,04,13,16,13.00
2011,05,04,13,17,13.10
2011,05,04,13,18,13.10
2011,05,04,13,19,13.10
2011,05,04,13,20,13.10
2011,05,04,13,21,13.10
2011,05,04,13,22,13.20
2011,05,04,13,23,13.20
2011,05,04,13,24,13.20
2011,05,04,13,25,13.20
2011,05,04,13,26,13.20
2011,05,04,13,27,13.20
2011,05,04,13,28,13.30
2011,05,04,13,29,13.30
2011,05,04,13,30,13.50
2011,05,04,13,31,13.50
2011,05,04,13,32,13.60
2011,05,04,13,33,13.60
2011,05,04,13,34,13.60
2011,05,04,13,35,13.60
2011,05,04,13,36,13.50
2011,05,04,13,37,13.60
2011,05,04,13,38,13.60
2011,05,04,13,39,13.70
2011,05,04,13,40,13.80
2011,05,04,13,41,13.90
2011,05,04,13,42,14.00
2011,05,04,13,43,14.10
2011,05,04,13,44,14.10
2011,05,04,13,45,14.20
2011,05,04,13,46,14.10
2011,05,04,13,47,14.10
2011,05,04,13,48,14.00
2011,05,04,13,49,14.00
2011,05,04,13,50,14.10
2011,05,04,13,51,14.20
2011,05,04,13,52,14.20
2011,05,04,13,53,14.20
2011,05,04,13,54,14.20
2011,05,04,13,55,14.20
2011,05,04,13,56,14.20
2011,05,04,13,57,14.20
2011,05,04,13,58,14.20
2011,05,04,13,59,14.20
2011,05,04,14,00,14.10
2011,05,04,14,01,14.10
2011,05,04,14,02,14.20
2011,05,04,14,03,14.20
2011,05,04,14,04,14.20
2011,05,04,14,05,14.20
2011,05,04,14,06,14.20
2011,05,04,14,07,14.20
2011,05,04,14,08,14.20
2011,05,04,14,09,14.10
2011,05,04,14,10,14.10
2011,05,04,14,11,14.10
2011,05,04,14,12,14.10
2011,05,04,14,13,14.10
2011,05,04,14,14,14.20
2011,05,04,14,15,14.20
2011,05,04,14,16,14.30
2011,05,04,14,17,14.40
2011,05,04,14,18,14.50
2011,05,04,14,19,14.50
2011,05,04,14,20,14.60
2011,05,04,14,21,14.60
2011,05,04,14,22,14.60
2011,05,04,14,23,14.60
2011,05,04,14,24,14.70
2011,05,04,14,25,14.80
2011,05,04,14,26,14.80
2011,05,04,14,27,14.80
2011,05,04,14,28,14.80
2011,05,04,14,29,14.80
2011,05,04,14,30,14.80
2011,05,04,14,31,14.80
2011,05,04,14,32,14.80
2011,05,04,14,33,14.80
2011,05,04,14,34,14.80
2011,05,04,14,35,14.80
2011,05,04,14,36,14.80
2011,05,04,14,37,14.90
2011,05,04,14,38,14.90
2011,05,04,14,39,14.90
2011,05,04,14,40,14.90
2011,05,04,14,41,14.80
2011,05,04,14,42,14.80
2011,05,04,14,43,14.80
2011,05,04,14,44,14.70
2011,05,04,14,45,14.70
2011,05,04,14,46,14.60
2011,05,04,14,47,14.60
2011,05,04,14,48,14.50
2011,05,04,14,49,14.50
2011,05,04,14,50,14.50
2011,05,04,14,51,14.50
2011,05,04,14,52,14.50
2011,05,04,14,53,14.50
2011,05,04,14,54,14.40
2011,05,04,14,55,14.40
2011,05,04,14,56,14.40
2011,05,04,14,57,14.40
2011,05,04,14,58,14.40
2011,05,04,14,59,14.40
2011,05,04,15,00,14.40
2011,05,04,15,01,14.40
2011,05,04,15,02,14.30
2011,05,04,15,03,14.30
2011,05,04,15,04,14.30
2011,05,04,15,05,14.30
2011,05,04,15,06,14.30
2011,05,04,15,07,14.30
2011,05,04,15,08,14.30
2011,05,04,15,09,14.30
2011,05,04,15,10,14.30
2011,05,04,15,11,14.40
2011,05,04,15,12,14.40
2011,05,04,15,13,14.50
2011,05,04,15,14,14.50
2011,05,04,15,15,14.60
2011,05,04,15,16,14.70
2011,05,04,15,17,14.80
2011,05,04,15,18,14.80
2011,05,04,15,19,14.80
2011,05,04,15,20,14.80
2011,05,04,15,21,14.80
2011,05,04,15,22,14.80
2011,05,04,15,23,14.80
2011,05,04,15,24,14.70
2011,05,04,15,25,14.70
2011,05,04,15,26,14.70
2011,05,04,15,27,14.60
2011,05,04,15,28,14.60
2011,05,04,15,29,14.50
2011,05,04,15,30,14.40
2011,05,04,15,31,14.30
2011,05,04,15,32,14.20
2011,05,04,15,33,14.10
2011,05,04,15,34,14.00
2011,05,04,15,35,14.00
2011,05,04,15,36,13.90
2011,05,04,15,37,13.90
2011,05,04,15,38,14.00
2011,05,04,15,39,14.00
2011,05,04,15,40,14.00
2011,05,04,15,41,14.00
2011,05,04,15,42,14.00
2011,05,04,15,43,14.10
2011,05,04,15,44,14.10
2011,05,04,15,45,14.10
2011,05,04,15,46,14.10
2011,05,04,15,47,14.10
2011,05,04,15,48,14.10
2011,05,04,15,49,14.10
2011,05,04,15,50,14.20
2011,05,04,15,51,14.20
2011,05,04,15,52,14.10
2011,05,04,15,53,14.10
2011,05,04,15,54,14.10
2011,05,04,15,55,14.10
2011,05,04,15,56,14.00
2011,05,04,15,57,14.00
2011,05,04,15,58,14.00
2011,05,04,15,59,14.00
2011,05,04,16,00,13.90
2011,05,04,16,01,13.90
2011,05,04,16,02,13.90
2011,05,04,16,03,13.80
2011,05,04,16,04,13.80
2011,05,04,16,05,13.70
2011,05,04,16,06,13.70
2011,05,04,16,07,13.70
2011,05,04,16,08,13.70
2011,05,04,16,09,13.70
2011,05,04,16,10,13.70
2011,05,04,16,11,13.70
2011,05,04,16,12,13.70
2011,05,04,16,13,13.70
2011,05,04,16,14,13.70
2011,05,04,16,15,13.70
2011,05,04,16,16,13.70
2011,05,04,16,17,13.70
2011,05,04,16,18,13.70
2011,05,04,16,19,13.70
2011,05,04,16,20,13.70
2011,05,04,16,21,13.70
2011,05,04,16,22,13.60
2011,05,04,16,23,13.60
2011,05,04,16,24,13.60
2011,05,04,16,25,13.60
2011,05,04,16,26,13.60
2011,05,04,16,27,13.50
2011,05,04,16,28,13.50
2011,05,04,16,29,13.50
2011,05,04,16,30,13.50
2011,05,04,16,31,13.50
2011,05,04,16,32,13.50
2011,05,04,16,33,13.50
2011,05,04,16,34,13.50
2011,05,04,16,35,13.50
2011,05,04,16,36,13.50
2011,05,04,16,37,13.60
2011,05,04,16,38,13.60
2011,05,04,16,39,13.60
2011,05,04,16,40,13.60
2011,05,04,16,41,13.60
2011,05,04,16,42,13.60
2011,05,04,16,43,13.60
2011,05,04,16,44,13.60
2011,05,04,16,45,13.60
2011,05,04,16,46,13.60
2011,05,04,16,47,13.60
2011,05,04,16,48,13.60
2011,05,04,16,49,13.60
2011,05,04,16,50,13.60
2011,05,04,16,51,13.70
2011,05,04,16,52,13.70
2011,05,04,16,53,13.70
2011,05,04,16,54,13.70
2011,05,04,16,55,13.70
2011,05,04,16,56,13.70
2011,05,04,16,57,13.70
2011,05,04,16,58,13.70
2011,05,04,16,59,13.70
2011,05,04,17,00,13.70
2011,05,04,17,01,13.70
2011,05,04,17,02,13.70
2011,05,04,17,03,13.70
2011,05,04,17,04,13.60
2011,05,04,17,05,13.60
2011,05,04,17,06,13.60
2011,05,04,17,07,13.60
2011,05,04,17,08,13.60
2011,05,04,17,09,13.60
2011,05,04,17,10,13.60
2011,05,04,17,11,13.50
2011,05,04,17,12,13.50
2011,05,04,17,13,13.50
2011,05,04,17,14,13.50
2011,05,04,17,15,13.50
2011,05,04,17,16,13.50
2011,05,04,17,17,13.50
2011,05,04,17,18,13.50
2011,05,04,17,19,13.50
2011,05,04,17,20,13.50
2011,05,04,17,21,13.50
2011,05,04,17,22,13.50
2011,05,04,17,23,13.50
2011,05,04,17,24,13.50
2011,05,04,17,25,13.50
2011,05,04,17,26,13.50
2011,05,04,17,27,13.50
2011,05,04,17,28,13.50
2011,05,04,17,29,13.50
2011,05,04,17,30,13.40
2011,05,04,17,31,13.40
2011,05,04,17,32,13.40
2011,05,04,17,33,13.40
2011,05,04,17,34,13.40
2011,05,04,17,35,13.40
2011,05,04,17,36,13.40
2011,05,04,17,37,13.40
2011,05,04,17,38,13.40
2011,05,04,17,39,13.40
2011,05,04,17,40,13.40
2011,05,04,17,41,13.40
2011,05,04,17,42,13.40
2011,05,04,17,43,13.40
2011,05,04,17,44,13.40
2011,05,04,17,45,13.40
2011,05,04,17,46,13.40
2011,05,04,17,47,13.40